"datetime","# probes","# resolvers","can_ipv6","can_ipv6_prbs","can_tcp","can_tcp_prbs","can_tcp6","can_tcp6_prbs","does_ecs","does_ecs_prbs","does_flagday","does_flagday_prbs","does_rov4","does_rov4_prbs","does_rov6","does_rov6_prbs","does_qnamemin","doesnt_qnamemin","does_qnamemin_prbs","doesnt_qnamemin_prbs","does_nxdomain","doesnt_nxdomain","does_nxdomain_prbs","doesnt_nxdomain_prbs","has_ta_19036","hasnt_ta_19036","has_ta_19036_prbs","hasnt_ta_19036_prbs","has_ta_20326","hasnt_ta_20326","has_ta_20326_prbs","hasnt_ta_20326_prbs","can_rsamd5","cannot_rsamd5","broken_rsamd5","can_rsamd5_prbs","cannot_rsamd5_prbs","broken_rsamd5_prbs","can_dsa","cannot_dsa","broken_dsa","can_dsa_prbs","cannot_dsa_prbs","broken_dsa_prbs","can_rsasha1","cannot_rsasha1","broken_rsasha1","can_rsasha1_prbs","cannot_rsasha1_prbs","broken_rsasha1_prbs","can_dsansec3","cannot_dsansec3","broken_dsansec3","can_dsansec3_prbs","cannot_dsansec3_prbs","broken_dsansec3_prbs","can_rsansec3","cannot_rsansec3","broken_rsansec3","can_rsansec3_prbs","cannot_rsansec3_prbs","broken_rsansec3_prbs","can_rsasha256","cannot_rsasha256","broken_rsasha256","can_rsasha256_prbs","cannot_rsasha256_prbs","broken_rsasha256_prbs","can_rsasha512","cannot_rsasha512","broken_rsasha512","can_rsasha512_prbs","cannot_rsasha512_prbs","broken_rsasha512_prbs","can_eccgost","cannot_eccgost","broken_eccgost","can_eccgost_prbs","cannot_eccgost_prbs","broken_eccgost_prbs","can_ecdsa256","cannot_ecdsa256","broken_ecdsa256","can_ecdsa256_prbs","cannot_ecdsa256_prbs","broken_ecdsa256_prbs","can_ecdsa384","cannot_ecdsa384","broken_ecdsa384","can_ecdsa384_prbs","cannot_ecdsa384_prbs","broken_ecdsa384_prbs","can_ed25519","cannot_ed25519","broken_ed25519","can_ed25519_prbs","cannot_ed25519_prbs","broken_ed25519_prbs","can_ed448","cannot_ed448","broken_ed448","can_ed448_prbs","cannot_ed448_prbs","broken_ed448_prbs","can_gost","cannot_gost","broken_gost","can_gost_prbs","cannot_gost_prbs","broken_gost_prbs","can_sha384","cannot_sha384","broken_sha384","can_sha384_prbs","cannot_sha384_prbs","broken_sha384_prbs","is_internal","is_forwarding","is_external","is_internal_prbs","is_forwarding_prbs","is_external_prbs"
2017-06-20T23:59:59Z,221,396,394,219,396,221,390,218,3,22,0,0,0,0,0,0,2,394,1,220,0,394,0,219,0,0,0,0,0,0,0,0,371,15,10,203,24,21,389,6,0,215,29,0,396,0,0,221,13,0,387,8,0,213,32,0,394,1,0,219,14,0,394,1,0,219,14,0,394,1,0,219,13,0,15,379,2,15,212,1,396,0,0,221,12,0,395,0,0,220,13,0,0,394,2,0,220,1,0,394,2,0,220,1,15,379,2,24,211,1,396,0,0,221,13,0,363,13,20,200,18,32
2017-06-21T23:59:59Z,224,408,406,222,408,224,401,220,6,25,0,0,0,0,0,0,2,406,1,223,0,406,0,222,0,0,0,0,0,0,0,0,379,16,13,205,26,24,400,7,0,218,32,0,408,0,0,224,13,0,400,7,0,218,32,0,406,1,0,223,14,0,406,1,0,223,14,0,406,1,0,223,14,0,15,391,2,15,215,1,407,1,0,223,14,0,407,1,0,223,14,0,0,406,2,0,223,1,0,406,2,0,223,1,14,392,2,24,214,1,407,1,0,223,14,0,369,15,24,200,20,33
2017-06-22T23:59:59Z,227,408,406,225,408,227,399,223,2,22,0,0,0,0,0,0,3,405,2,225,0,406,0,225,0,0,0,0,0,0,0,0,380,15,13,207,24,25,399,8,0,220,32,0,408,0,0,227,13,0,398,9,0,219,33,0,407,0,0,226,12,0,407,0,0,226,12,0,407,0,0,226,12,0,15,391,2,15,218,1,407,1,0,226,14,0,407,1,0,226,14,0,0,406,2,0,226,1,0,406,2,0,226,1,16,390,2,25,216,1,408,0,0,227,13,0,367,15,26,202,20,33
2017-06-23T23:59:59Z,222,406,404,220,405,222,401,220,3,21,0,0,0,0,0,0,2,404,1,221,0,405,0,221,0,0,0,0,0,0,0,0,380,14,12,204,23,22,400,5,0,217,29,0,406,0,0,222,12,0,401,4,0,218,29,0,405,0,0,221,12,0,406,0,0,222,12,0,404,1,0,221,13,0,15,389,2,15,213,1,406,0,0,222,12,0,405,1,0,222,13,0,0,404,2,0,221,1,0,404,2,0,221,1,15,389,2,24,212,1,405,1,0,222,13,0,366,13,27,199,18,32
2017-06-24T23:59:59Z,226,409,407,224,408,226,401,224,3,23,0,0,0,0,0,0,2,407,1,225,0,407,0,224,0,0,0,0,0,0,0,0,381,15,12,207,24,24,399,8,0,219,32,0,409,0,0,226,12,0,400,7,0,219,31,0,407,1,0,224,13,0,407,1,0,224,13,0,405,2,0,223,14,0,15,392,2,15,217,1,407,1,0,225,13,0,406,2,0,224,14,0,0,407,2,0,225,1,0,407,2,0,225,1,14,393,2,24,216,1,408,0,0,225,12,0,369,14,26,202,19,33
2017-06-25T23:59:59Z,225,405,403,223,405,225,403,223,2,21,0,0,0,0,0,0,0,405,0,225,0,402,0,223,0,0,0,0,0,0,0,0,379,14,11,208,24,24,395,8,0,218,34,1,405,0,0,225,13,1,395,8,0,217,33,1,403,1,0,223,14,1,403,1,0,224,13,1,402,1,0,223,14,1,15,390,0,15,217,1,404,0,0,225,12,1,404,0,0,225,13,1,0,405,0,0,225,1,0,405,0,0,225,1,14,391,0,24,216,1,404,0,0,225,12,1,368,14,23,202,19,32
2017-06-26T23:59:59Z,225,409,407,223,409,225,386,222,3,24,0,0,0,0,0,0,2,407,1,224,0,406,0,222,0,0,0,0,0,0,0,0,381,14,13,207,24,24,399,8,0,219,33,0,409,0,0,225,13,0,400,7,0,219,32,0,408,0,0,224,13,0,407,1,0,225,14,0,407,0,0,224,13,0,15,392,2,15,216,1,408,0,0,225,13,0,409,0,0,225,13,0,0,407,2,0,224,1,0,407,2,0,224,1,14,393,2,24,215,1,407,1,0,225,14,0,371,14,24,202,20,33
2017-06-27T23:59:59Z,227,411,408,224,411,227,394,223,4,25,0,0,0,0,0,0,3,408,2,225,0,408,0,224,0,0,0,0,0,0,0,0,382,15,12,208,25,23,400,8,0,219,33,0,411,0,0,227,13,0,401,7,0,219,32,0,409,0,0,225,13,0,408,1,0,226,14,0,408,0,0,225,13,0,14,394,2,14,218,1,409,0,0,226,13,0,410,0,0,226,13,0,0,409,2,0,226,1,0,409,2,0,226,1,15,393,2,25,215,1,409,0,0,226,13,0,373,14,24,204,20,33
2017-06-28T23:59:59Z,228,413,410,225,413,228,402,225,3,20,0,0,0,0,0,0,5,408,3,225,0,410,0,225,0,0,0,0,0,0,0,0,383,15,13,209,23,23,404,7,0,222,30,1,413,0,0,228,11,1,403,7,0,220,30,0,409,2,0,225,13,1,409,2,0,226,13,1,409,1,0,225,12,1,15,393,4,15,217,3,410,1,0,227,12,1,412,0,0,227,11,1,0,409,4,1,226,2,0,409,4,0,226,3,14,394,4,23,216,3,410,1,0,227,12,1,373,13,27,205,18,32
2017-06-29T23:59:59Z,226,410,407,223,410,226,394,220,4,22,0,0,0,0,0,0,2,408,1,225,0,407,0,223,0,0,0,0,0,0,0,0,382,15,11,208,23,21,403,5,0,222,28,0,410,0,0,226,11,0,401,6,0,219,29,0,407,1,0,224,12,0,408,0,0,225,11,0,406,1,0,224,12,0,14,393,2,14,217,1,407,1,0,225,12,0,408,1,0,225,12,0,0,408,2,0,225,1,0,408,2,0,225,1,14,393,2,23,215,1,407,1,0,224,12,0,370,13,27,203,18,32
2017-06-30T23:59:59Z,228,413,410,225,413,228,402,225,3,21,0,0,0,0,0,0,2,411,1,227,0,410,0,225,0,0,0,0,0,0,0,0,385,14,12,210,22,23,405,6,0,223,30,1,413,0,0,228,11,1,405,5,0,223,29,1,410,1,0,226,12,1,410,1,0,227,12,1,410,1,0,226,12,1,14,396,2,14,219,2,410,1,0,226,12,1,410,2,0,226,13,1,0,411,2,0,227,2,0,411,2,0,227,2,14,396,2,24,217,2,411,0,0,227,11,1,372,13,28,204,18,33
2017-07-01T23:59:59Z,232,417,414,229,417,232,398,229,2,20,0,0,0,0,0,0,4,413,2,230,0,414,0,229,0,0,0,0,0,0,0,0,387,15,13,213,23,22,408,7,0,225,31,0,417,0,0,232,12,0,406,8,0,224,32,0,414,1,0,229,13,0,414,1,0,230,13,0,413,2,0,229,14,0,15,397,4,15,221,2,415,0,0,231,12,0,416,0,0,231,12,0,0,413,4,0,230,2,0,413,4,0,230,2,16,396,4,25,219,2,413,2,0,229,13,0,377,13,27,209,18,32
2017-07-02T23:59:59Z,232,420,417,229,420,232,398,225,4,21,0,0,0,0,0,0,4,416,2,230,0,417,0,229,0,0,0,0,0,0,0,0,390,15,13,213,23,23,411,7,0,225,30,1,420,0,0,232,12,1,409,8,0,223,32,1,417,1,0,229,13,1,417,1,0,230,13,1,417,1,0,230,13,1,14,401,4,14,222,3,417,1,0,230,13,1,418,1,0,230,13,1,0,416,4,0,230,3,0,416,4,0,230,3,14,401,4,23,220,3,416,2,0,229,13,1,377,13,30,208,18,33
2017-07-03T23:59:59Z,231,415,412,228,415,231,393,226,4,22,0,0,0,0,0,0,4,411,2,229,0,412,1,228,0,0,0,0,0,0,0,0,387,15,11,212,23,24,407,6,0,226,31,2,415,0,0,231,13,2,406,6,0,224,31,2,412,1,0,228,13,2,412,1,0,229,13,2,412,1,0,229,13,2,15,395,4,15,220,4,413,0,0,230,12,2,414,0,0,230,13,2,0,411,4,0,229,4,0,411,4,0,229,4,16,394,4,24,218,4,413,0,0,230,13,2,373,13,29,207,19,34
2017-07-04T23:59:59Z,233,418,415,230,418,233,392,228,4,24,0,0,0,0,0,0,3,415,2,231,0,415,1,230,0,0,0,0,0,0,0,0,391,14,11,215,24,25,408,8,0,226,33,2,418,0,0,233,13,2,408,7,0,225,31,2,416,0,0,231,12,2,416,0,0,232,12,2,416,0,0,232,12,2,15,400,2,15,223,3,416,1,0,231,14,2,416,1,0,231,13,2,0,416,2,0,232,3,0,416,2,0,232,3,15,400,2,25,222,3,415,1,0,231,14,2,377,13,28,209,19,35
2017-07-05T23:59:59Z,231,417,414,228,417,231,396,226,4,22,0,0,0,0,0,0,0,417,0,231,0,414,1,228,0,0,0,0,0,0,0,0,393,14,8,214,23,23,410,5,0,226,29,2,417,0,0,231,12,2,408,7,0,225,32,2,415,0,0,229,11,2,415,0,0,230,11,2,415,0,0,230,12,2,15,401,0,15,222,2,414,2,0,228,13,2,414,2,0,228,14,2,0,417,0,0,231,2,0,417,0,0,231,2,15,401,0,25,221,2,414,1,0,229,13,2,375,13,29,207,18,34
2017-07-06T23:59:59Z,231,420,417,228,420,231,366,217,4,23,0,0,0,0,0,0,1,419,1,230,0,417,1,228,0,0,0,0,0,0,0,0,396,14,8,214,23,22,411,7,0,224,32,1,420,0,0,231,12,1,411,7,0,224,32,1,417,1,0,228,13,1,417,1,0,229,13,1,417,1,0,229,12,1,13,406,0,13,224,1,417,2,0,228,14,1,417,2,0,228,13,1,0,420,0,0,231,1,0,420,0,0,231,1,16,403,0,25,220,1,417,1,0,229,12,1,377,13,30,207,18,34
2017-07-07T23:59:59Z,228,419,416,225,419,228,415,224,4,22,0,0,0,0,0,0,1,418,1,227,0,416,1,225,0,0,0,0,0,0,0,0,393,14,10,211,22,23,413,5,0,224,29,1,419,0,0,228,11,1,412,5,0,223,28,2,415,2,0,225,13,1,416,1,0,226,12,2,416,1,0,227,12,1,13,405,0,13,221,1,416,2,0,226,13,1,417,1,0,226,12,1,0,419,0,0,228,1,0,419,0,0,228,1,14,404,0,24,219,1,416,1,0,226,12,1,379,13,27,205,18,33
2017-07-08T23:59:59Z,230,422,419,227,422,230,417,226,4,22,0,0,0,0,0,0,0,422,0,230,0,418,1,226,0,0,0,0,0,0,0,0,395,15,10,213,23,23,415,6,0,226,30,1,422,0,0,230,11,1,415,5,0,225,29,1,419,1,0,227,12,1,418,2,0,228,13,1,418,2,0,228,13,1,14,407,0,14,222,1,419,2,0,228,13,1,419,2,0,228,13,1,0,422,0,0,230,1,0,422,0,0,230,1,13,408,0,23,221,1,420,0,0,229,11,1,382,13,27,207,18,33
2017-07-09T23:59:59Z,232,425,422,229,425,232,420,228,2,21,0,0,0,0,0,0,0,425,0,232,0,422,1,229,0,0,0,0,0,0,0,0,397,15,11,214,23,24,417,7,0,226,31,1,425,0,0,232,11,1,417,6,0,226,29,1,421,2,0,229,13,1,421,2,0,230,13,1,422,1,0,230,12,1,14,410,0,14,224,1,423,1,0,230,12,1,423,1,0,230,12,1,0,425,0,0,232,1,0,425,0,0,232,1,13,411,0,23,223,1,422,1,0,230,12,1,385,13,27,209,18,33
2017-07-10T23:59:59Z,234,430,427,231,430,234,425,231,2,22,0,0,0,0,0,0,1,429,1,233,0,426,1,230,0,0,0,0,0,0,0,0,403,16,9,217,25,23,423,6,0,229,32,1,430,0,0,234,12,1,423,5,0,229,31,1,426,2,0,231,14,1,426,2,0,232,14,1,427,1,0,232,13,1,14,415,0,14,226,1,428,1,0,233,13,1,429,0,0,233,12,1,0,430,0,0,234,1,0,430,0,0,234,1,16,413,0,26,223,1,427,1,0,233,13,1,391,13,26,211,20,33
2017-07-11T23:59:59Z,233,425,422,230,425,233,420,229,3,22,0,0,0,0,0,0,0,425,0,233,0,422,1,230,0,0,0,0,0,0,0,0,399,16,8,215,24,22,418,6,0,227,30,1,425,0,0,233,11,1,416,7,0,227,31,1,423,1,0,232,12,1,423,0,0,232,11,1,422,1,0,232,12,1,15,409,0,15,224,1,422,2,0,231,13,1,422,2,0,231,13,1,0,425,0,0,233,1,0,425,0,0,233,1,16,408,0,25,222,1,421,2,0,230,13,1,385,13,27,210,18,33
2017-07-12T23:59:59Z,233,424,421,230,424,233,420,230,2,21,0,0,0,0,0,0,0,424,0,233,0,421,1,230,0,0,0,0,0,0,0,0,398,14,9,216,22,22,418,5,0,228,30,1,424,0,0,233,12,1,414,7,0,227,32,1,421,0,0,231,11,1,420,0,0,231,11,1,420,0,0,231,11,1,15,408,0,15,224,1,420,1,0,230,12,1,420,1,0,230,12,1,0,424,0,0,233,1,0,424,0,0,233,1,14,409,0,24,223,1,420,1,0,230,13,1,384,13,27,210,18,33
2017-07-13T23:59:59Z,234,422,419,231,422,234,418,231,2,21,0,0,0,0,0,0,1,421,1,233,0,418,1,231,0,0,0,0,0,0,0,0,394,15,10,215,24,23,416,5,0,229,31,1,422,0,0,234,13,1,414,5,0,229,31,1,418,1,0,231,13,1,417,1,0,231,14,1,418,0,0,232,12,1,15,406,0,15,225,1,419,0,0,232,13,1,419,0,0,232,13,1,0,422,0,0,234,1,0,422,0,0,234,1,15,406,0,25,223,1,418,1,0,231,13,1,380,14,28,210,19,34
2017-07-14T23:59:59Z,234,424,421,231,424,234,420,231,6,24,0,0,0,0,0,0,0,424,0,234,0,419,1,229,0,0,0,0,0,0,0,0,396,14,11,215,23,24,416,7,0,228,32,1,424,0,0,234,12,1,416,5,0,229,30,1,420,1,0,232,13,1,420,0,0,232,12,1,419,1,0,232,13,1,14,409,0,14,226,1,419,2,0,231,14,1,420,1,0,231,13,1,0,424,0,0,234,1,0,424,0,0,234,1,15,408,0,25,223,1,420,1,0,231,13,1,383,14,27,210,19,34
2017-07-15T23:59:59Z,231,421,418,228,421,231,417,228,3,22,0,0,0,0,0,0,2,419,1,230,0,418,0,228,0,0,0,0,0,0,0,0,390,15,13,212,24,23,413,7,0,225,32,0,421,0,0,231,12,0,411,7,0,225,31,0,418,0,0,229,11,0,417,0,0,229,11,0,417,0,0,229,12,0,15,403,2,16,221,1,417,1,0,228,13,0,417,1,0,228,13,0,0,419,2,0,230,1,0,419,2,0,230,1,17,401,2,26,218,1,417,1,0,228,12,0,380,14,27,207,19,34
2017-07-16T23:59:59Z,234,423,419,230,423,234,418,230,6,25,0,0,0,0,0,0,3,420,2,232,0,419,0,230,0,0,0,0,0,0,0,0,389,17,14,213,25,25,414,8,0,228,32,0,423,0,0,234,12,0,413,7,0,229,32,0,419,1,0,231,12,0,418,1,0,231,12,0,418,1,0,231,13,0,15,405,2,15,224,1,420,0,0,232,11,0,420,0,0,232,11,0,0,421,2,0,233,1,0,421,2,0,233,1,16,404,2,27,222,1,420,0,0,232,12,0,380,15,28,209,20,35
2017-07-17T23:59:59Z,235,421,417,231,421,235,416,231,6,26,0,0,0,0,0,0,2,419,1,234,0,418,0,232,0,0,0,0,0,0,0,0,385,19,14,210,27,26,411,9,0,227,34,0,421,0,0,235,13,0,409,9,0,227,35,0,418,0,0,233,13,0,417,0,0,233,13,0,417,0,0,233,13,0,14,404,2,14,226,1,416,2,0,231,14,0,416,2,0,231,14,0,0,419,2,0,234,1,0,419,2,0,234,1,18,400,2,28,222,1,416,2,0,231,15,0,379,15,27,210,21,36
2017-07-18T23:59:59Z,233,419,415,229,419,233,413,229,4,24,0,0,0,0,0,0,3,416,2,231,0,416,0,230,0,0,0,0,0,0,0,0,387,18,11,211,26,24,412,6,0,228,30,0,419,0,0,233,12,0,409,7,0,227,31,0,415,1,0,230,12,0,414,1,0,230,13,0,414,1,0,230,12,0,15,401,2,15,223,1,416,0,0,231,11,0,415,1,0,230,12,0,0,417,2,0,232,1,0,417,2,0,232,1,16,400,2,27,221,1,415,1,0,230,12,0,376,15,28,208,20,35
2017-07-19T23:59:59Z,231,417,413,227,417,231,412,227,3,23,0,0,0,0,0,0,1,416,1,230,0,413,0,227,0,0,0,0,0,0,0,0,386,18,10,212,27,22,409,7,0,226,33,0,417,0,0,231,12,0,407,7,0,226,33,0,413,1,0,229,13,0,413,0,0,229,12,0,413,0,0,229,12,0,14,402,0,14,223,0,413,1,0,229,13,0,413,1,0,229,13,0,0,417,0,0,231,0,0,417,0,0,231,0,17,399,0,28,219,0,414,0,0,229,12,0,374,15,28,206,20,35
2017-07-20T23:59:59Z,234,420,416,230,420,234,414,230,6,26,0,0,0,0,0,0,0,420,0,234,0,415,0,229,0,0,0,0,0,0,0,0,389,16,11,215,25,23,412,6,0,227,32,0,420,0,0,234,12,0,408,8,0,226,34,0,415,1,0,230,13,0,414,1,0,230,13,0,413,2,0,230,14,0,15,404,0,15,225,0,415,2,0,231,14,0,414,2,0,230,14,0,0,419,1,1,233,1,1,419,0,1,233,1,16,403,0,27,224,0,414,2,0,229,14,0,379,14,27,210,19,35
2017-07-21T23:59:59Z,235,421,417,231,421,235,416,231,5,25,0,0,0,0,0,0,2,419,1,234,0,417,0,231,0,0,0,0,0,0,0,0,386,17,15,213,27,26,413,7,0,229,35,0,421,0,0,235,14,0,412,6,0,229,34,0,418,0,0,233,13,0,416,0,0,232,13,0,416,0,0,233,14,0,14,404,2,14,226,1,417,1,0,232,14,0,416,1,0,231,15,0,0,419,2,0,234,1,0,419,2,0,234,1,15,403,2,26,223,1,416,1,0,231,14,0,379,14,28,211,19,36
2017-07-22T23:59:59Z,234,421,417,230,421,234,415,230,2,23,0,0,0,0,0,0,3,418,2,232,0,417,0,230,0,0,0,0,0,0,0,0,386,18,14,212,27,25,414,6,0,228,32,0,421,0,0,234,12,0,411,7,0,227,33,0,416,2,0,231,14,0,415,1,0,230,13,0,415,1,0,231,13,0,15,403,2,15,224,1,416,2,0,231,14,0,416,1,0,230,13,0,0,419,2,0,233,1,0,419,2,0,233,1,14,404,2,25,223,1,415,2,0,230,14,0,379,14,28,210,19,35
2017-07-23T23:59:59Z,234,420,416,230,420,234,415,230,4,23,0,0,0,0,0,0,2,418,1,233,0,417,0,231,0,0,0,0,0,0,0,0,388,16,13,213,25,25,412,7,0,227,34,0,420,0,0,234,13,0,409,8,0,226,35,0,416,1,0,231,14,0,414,1,0,230,13,0,414,1,0,231,14,0,15,402,2,15,224,1,416,1,0,231,14,0,415,1,0,230,14,0,0,418,2,0,233,1,0,418,2,0,233,1,16,401,2,27,221,1,416,1,0,231,14,0,378,14,28,210,19,35
2017-07-24T23:59:59Z,235,422,419,232,422,235,417,231,4,24,0,0,0,0,0,0,2,420,1,234,0,418,0,231,0,0,0,0,0,0,0,0,389,17,14,215,26,25,416,6,0,231,32,0,422,0,0,235,13,0,415,5,0,231,32,0,420,0,0,234,13,0,418,0,0,233,12,0,417,1,0,233,13,0,15,405,2,15,226,1,420,0,0,234,12,0,419,0,0,233,12,0,0,420,2,0,234,1,0,420,2,0,234,1,17,403,2,27,223,1,418,1,0,232,13,0,380,14,28,211,19,35
2017-07-25T23:59:59Z,234,422,419,231,422,234,417,231,3,25,0,0,0,0,0,0,3,419,2,232,0,419,0,231,0,0,0,0,0,0,0,0,388,18,14,213,28,25,415,7,0,229,34,0,422,0,0,234,13,0,412,8,0,228,35,0,420,0,0,233,13,0,418,0,0,232,13,0,418,0,0,233,13,0,15,405,2,15,225,1,420,0,0,233,13,0,418,1,0,232,14,0,0,420,2,0,233,1,0,420,2,0,233,1,17,403,2,28,221,1,418,1,0,232,14,0,380,14,28,210,19,36
2017-07-26T23:59:59Z,233,419,416,230,419,233,414,230,1,22,0,0,0,0,0,0,3,416,2,231,0,416,0,230,0,0,0,0,0,0,0,0,387,16,14,213,27,25,413,6,0,228,34,0,419,0,0,233,14,0,410,7,0,228,35,0,417,0,0,232,13,0,415,0,0,231,13,0,415,0,0,232,13,0,16,401,2,16,223,1,417,0,0,232,14,0,416,0,0,231,13,0,0,417,2,0,232,1,0,417,2,0,232,1,18,399,2,29,219,1,416,0,0,231,13,0,377,14,28,209,19,36
2017-07-27T23:59:59Z,234,415,412,231,415,234,411,231,3,22,0,0,0,0,0,0,2,413,1,233,0,411,1,230,0,0,0,0,0,0,0,0,384,17,12,214,26,25,407,7,1,228,34,2,415,0,0,234,13,0,406,6,1,228,32,2,412,0,1,232,13,1,409,1,1,230,14,1,409,1,1,231,13,1,15,397,3,15,224,3,411,1,1,231,14,1,410,1,1,230,13,1,0,412,3,0,232,2,0,412,3,0,232,2,17,395,3,29,221,2,410,1,1,230,14,2,374,14,27,210,19,35
2017-07-28T23:59:59Z,231,414,411,228,414,231,410,228,4,24,0,0,0,0,0,0,0,414,0,231,0,411,0,228,0,0,0,0,0,0,0,0,382,17,13,211,25,26,406,8,0,225,33,0,414,0,0,231,12,0,406,6,0,226,32,0,412,0,0,230,11,0,411,0,0,229,12,0,410,0,0,230,11,0,15,399,0,15,223,0,411,1,0,229,13,0,410,1,0,228,13,0,0,414,0,0,231,0,0,414,0,0,231,0,17,397,0,29,220,0,410,1,0,228,12,0,373,14,27,207,19,36
2017-07-29T23:59:59Z,230,411,408,227,411,230,407,227,4,22,0,0,0,0,0,0,1,410,1,229,0,408,0,227,0,0,0,0,0,0,0,0,381,17,11,211,26,22,406,5,0,226,29,0,411,0,0,230,12,0,404,5,0,226,29,0,409,0,0,229,12,1,408,0,0,228,11,0,407,0,0,229,11,0,16,395,0,16,221,0,408,1,0,228,13,0,407,1,0,227,12,0,0,411,0,0,230,0,0,411,0,0,230,0,15,396,0,25,220,1,407,1,0,227,12,0,370,14,27,206,19,34
2017-07-30T23:59:59Z,230,411,408,227,411,230,407,227,2,22,0,0,0,0,0,0,1,410,1,229,0,408,0,227,0,0,0,0,0,0,0,0,380,16,13,211,26,24,404,7,0,225,32,0,411,0,0,230,13,0,402,7,0,225,33,0,408,1,0,228,13,0,407,1,0,227,13,0,406,1,0,228,14,0,16,395,0,16,221,0,409,0,0,229,13,0,408,0,0,228,12,0,0,411,0,0,230,0,0,411,0,0,230,0,16,395,0,26,219,0,407,1,0,227,13,0,369,14,28,206,19,35
2017-07-31T23:59:59Z,228,408,405,225,407,227,403,224,4,23,0,0,0,0,0,0,0,408,0,228,0,404,0,224,0,0,0,0,0,0,0,0,380,16,11,210,26,23,403,5,0,225,31,0,408,0,0,228,13,0,402,4,0,225,29,0,406,0,0,227,13,0,405,0,0,226,12,0,404,0,0,227,12,0,15,393,0,15,220,0,406,0,0,227,12,0,405,0,0,226,13,0,0,408,0,0,228,0,0,408,0,0,228,0,15,393,0,25,218,0,404,0,1,225,13,1,366,14,28,204,19,34
2017-08-01T23:59:59Z,230,412,409,227,412,230,408,227,5,23,0,0,0,0,0,0,2,410,1,229,0,409,0,227,0,0,0,0,0,0,0,0,383,17,11,211,26,23,404,7,0,225,32,0,412,0,0,230,12,0,401,8,0,225,33,0,408,1,0,229,13,0,408,0,0,228,12,0,407,0,0,229,12,0,15,395,2,15,221,1,410,0,0,229,12,0,407,1,0,228,13,1,0,410,2,0,229,1,0,410,2,0,229,2,16,394,2,26,218,1,409,0,0,228,12,0,370,15,27,206,19,33
2017-08-02T23:59:59Z,231,411,408,228,411,231,407,228,2,21,0,0,0,0,0,0,2,409,1,230,0,408,0,228,0,0,0,0,0,0,0,0,382,16,12,211,25,24,404,6,0,227,31,0,411,0,0,231,12,0,401,7,0,226,32,0,407,1,0,229,13,0,406,1,0,228,13,0,405,1,0,229,13,0,16,393,2,16,221,1,408,1,0,230,13,0,406,1,0,229,13,0,0,409,2,0,230,1,0,409,2,0,230,1,15,394,2,25,220,1,407,1,0,229,13,0,369,15,27,207,19,33
2017-08-03T23:59:59Z,231,414,411,228,414,231,410,228,2,20,0,0,0,0,0,0,3,411,2,229,0,411,0,228,0,0,0,0,0,0,0,0,385,17,11,212,26,22,408,5,0,227,30,0,414,0,0,231,12,0,406,5,0,228,30,0,410,1,0,230,13,0,409,1,0,228,13,0,407,2,0,229,14,0,15,397,2,15,222,1,410,2,0,229,14,0,409,1,0,228,13,0,0,412,2,0,230,1,0,412,2,0,230,1,16,396,2,26,220,1,410,1,0,229,13,0,372,15,27,207,19,33
2017-08-04T23:59:59Z,233,414,411,230,414,233,409,230,2,21,0,0,0,0,0,0,2,412,1,232,0,411,0,230,0,0,0,0,0,0,0,0,384,16,13,214,25,24,405,8,0,227,33,0,414,0,0,233,13,0,405,6,0,228,31,0,411,0,0,232,13,0,410,0,0,231,12,0,408,1,0,231,13,0,15,397,2,15,224,1,412,0,0,232,13,0,410,0,0,231,12,0,0,412,2,0,232,1,0,412,2,0,232,1,15,397,2,25,222,1,410,1,0,230,14,0,372,15,27,209,19,33
2017-08-05T23:59:59Z,233,413,410,230,413,233,409,230,2,22,0,0,0,0,0,0,2,411,1,232,0,410,0,230,0,0,0,0,0,0,0,0,385,16,11,214,26,24,407,5,0,229,32,0,413,0,0,233,13,0,405,5,0,229,32,0,409,1,0,231,13,0,408,1,0,230,14,0,407,1,0,231,14,0,16,395,2,16,224,1,411,0,0,232,13,0,409,0,0,231,13,0,0,411,2,0,232,1,0,411,2,0,232,1,18,393,2,28,219,1,410,0,0,231,13,1,372,14,27,210,18,34
2017-08-06T23:59:59Z,233,410,407,230,410,233,405,229,6,26,0,0,0,0,0,0,0,410,0,233,0,407,0,230,0,0,0,0,0,0,0,0,382,17,10,215,27,23,403,6,0,229,32,0,410,0,0,233,14,0,401,6,0,228,32,0,407,0,0,232,13,0,406,0,0,231,14,0,405,0,0,232,14,0,15,395,0,15,225,0,406,2,0,230,16,0,404,2,0,229,15,0,0,410,0,0,233,0,0,410,0,0,233,0,17,393,0,27,222,0,406,1,0,230,15,0,369,15,26,209,19,33
2017-08-07T23:59:59Z,229,406,403,226,406,229,401,226,2,22,0,0,0,0,0,0,0,406,0,229,0,403,0,226,0,0,0,0,0,0,0,0,379,17,9,212,27,22,400,5,0,225,31,0,406,0,0,229,13,0,398,5,0,225,31,0,403,0,0,228,13,0,401,1,0,227,14,0,400,1,0,228,14,0,14,392,0,14,222,0,402,2,0,227,15,0,400,2,0,226,15,0,0,406,0,0,229,0,0,406,0,0,229,0,15,391,0,26,220,0,402,1,0,226,14,0,367,14,25,205,19,33
2017-08-08T23:59:59Z,233,412,409,230,412,233,408,230,3,25,0,0,0,0,0,0,2,410,1,232,0,409,0,230,0,0,0,0,0,0,0,0,383,16,12,214,27,24,406,5,0,229,32,0,412,0,0,233,15,0,402,7,0,227,34,0,408,1,0,231,15,0,407,1,0,230,15,0,406,1,0,231,16,0,14,396,2,14,225,1,408,1,1,230,15,1,407,1,0,230,16,0,0,410,2,0,232,1,0,410,2,0,232,1,14,396,2,25,223,1,408,1,0,230,15,0,370,14,28,208,20,34
2017-08-09T23:59:59Z,234,413,410,231,413,234,408,231,4,25,0,0,0,0,0,0,3,410,2,232,0,409,0,230,0,0,0,0,0,0,0,0,384,18,10,215,30,23,404,8,0,228,36,0,413,0,0,234,15,0,405,6,0,230,34,0,410,0,0,233,15,0,408,1,0,232,16,0,409,0,0,233,15,0,15,396,2,15,225,1,408,3,0,231,18,0,407,2,0,230,17,0,0,411,2,0,233,1,1,410,2,1,232,1,15,396,2,26,223,1,407,2,1,229,17,1,371,14,28,209,21,36
2017-08-10T23:59:59Z,230,407,404,227,407,230,403,227,5,24,0,0,0,0,0,0,2,405,1,229,0,404,0,227,0,0,0,0,0,0,0,0,377,16,13,212,26,24,400,5,1,226,31,1,407,0,0,230,13,0,400,5,0,226,31,0,403,0,1,228,13,1,401,1,1,227,14,1,402,1,0,229,14,0,14,391,2,14,222,1,404,1,0,228,14,0,401,2,0,227,15,0,1,404,2,1,228,1,0,405,2,0,229,1,16,389,2,26,219,1,402,1,1,226,14,1,364,14,29,205,18,35
2017-08-11T23:59:59Z,232,408,405,229,407,231,404,229,4,23,0,0,0,0,0,0,3,405,2,230,0,405,0,229,0,0,0,0,0,0,0,0,378,16,13,214,27,22,401,6,0,227,31,0,408,0,0,232,14,0,398,8,0,225,33,0,404,1,0,230,14,0,403,1,0,229,15,0,403,1,0,230,14,0,14,392,2,14,224,1,404,2,0,229,15,0,401,2,1,227,15,1,0,406,2,0,231,1,0,406,2,0,231,1,15,391,2,25,222,1,403,2,0,228,15,0,366,14,28,207,18,35
2017-08-12T23:59:59Z,232,407,404,229,406,231,403,229,2,22,0,0,0,0,0,0,2,405,1,231,0,404,0,229,0,0,0,0,0,0,0,0,378,17,11,213,28,23,400,6,0,227,33,1,407,0,0,232,15,1,401,4,0,229,31,1,404,0,0,231,15,1,403,0,0,230,15,1,403,0,0,231,15,1,15,390,2,15,223,2,405,0,0,231,14,1,402,0,1,229,15,2,1,404,2,1,230,2,0,404,3,0,230,3,16,389,2,26,221,2,404,0,0,230,15,0,365,14,28,207,19,36
2017-08-13T23:59:59Z,233,414,411,230,414,233,409,229,5,24,0,0,0,0,0,0,2,412,1,232,0,411,0,230,0,0,0,0,0,0,0,0,381,18,14,213,27,24,404,9,0,226,35,0,414,0,0,233,14,0,405,7,0,227,33,0,411,0,0,232,14,0,410,0,0,231,14,0,410,0,0,232,13,0,13,399,2,13,225,1,411,1,0,231,15,0,409,1,0,230,14,0,0,412,2,0,232,1,0,412,2,0,232,1,16,395,3,26,220,2,411,0,0,231,14,0,371,14,29,208,18,35
2017-08-14T23:59:59Z,235,416,413,232,416,235,412,232,4,23,0,0,0,0,0,0,2,414,1,234,0,413,0,232,0,0,0,0,0,0,0,0,386,16,13,216,26,23,410,5,0,230,31,0,416,0,0,235,14,0,410,4,0,231,30,0,413,0,0,234,13,0,412,0,0,233,13,0,412,0,0,234,13,0,15,399,2,15,225,1,413,1,0,233,14,0,411,1,0,232,15,0,0,414,2,0,234,1,0,414,2,0,234,1,14,400,2,24,224,1,412,1,0,232,14,0,372,15,29,210,19,34
2017-08-15T23:59:59Z,237,425,422,234,425,237,421,234,5,24,0,0,0,0,0,0,2,423,1,236,0,422,0,234,0,0,0,0,0,0,0,0,393,17,14,217,26,24,417,7,0,232,31,0,425,0,0,237,13,0,417,6,0,232,31,0,421,1,0,235,14,0,420,1,0,234,14,0,420,1,0,235,14,0,15,408,2,15,227,1,422,1,0,235,14,0,419,2,0,233,15,0,0,423,2,0,236,1,0,423,2,0,236,1,15,408,2,25,225,1,421,1,0,234,13,0,380,15,30,211,19,34
2017-08-16T23:59:58Z,235,424,421,232,424,235,420,232,5,23,0,0,0,0,0,0,2,422,1,234,0,421,1,232,0,0,0,0,0,0,0,0,392,18,13,215,28,23,415,8,0,230,32,0,424,0,0,235,13,0,416,6,0,231,30,0,420,1,0,234,13,0,418,2,0,233,14,0,419,1,0,234,13,0,13,409,2,13,227,1,420,2,0,233,14,0,418,2,0,232,14,0,0,422,2,1,234,1,0,422,2,0,234,1,15,407,2,24,224,1,419,2,0,232,15,0,378,17,29,208,21,35